ENGINEERING TRACK TESTING
Weather & Rail Temperature Monitoring

Weather station NLC

New London Passenger Sta. (New London, CT)

Measurement History

Home Current History Weekly graphs

,

to download data from the start of , to the end of ,

Conditions for past 24 hours (since 09/01/2026 01:30 AM)

Time Track 1 N rail Track 1 S rail Track 2 N rail Track 2 S rail Outside Air
Temperature
Solar
Radiation
Max. Wind Humidity Air Pressure Rain
SpeedDir
09/02/2026 01:15 AM 62 °F 55 °F 61 °F 60 °F 63.7 °F 0 watt/m2 0 mph --- 91 % 30.097 in Hg 0 in
09/02/2026 01:00 AM 62 °F 55 °F 61 °F 60 °F 63.5 °F 0 watt/m2 0 mph --- 91 % 30.103 in Hg 0 in
09/02/2026 12:45 AM 62 °F 55 °F 62 °F 60 °F 63.4 °F 0 watt/m2 0 mph --- 91 % 30.09 in Hg 0 in
09/02/2026 12:30 AM 62 °F 55 °F 62 °F 60 °F 63.5 °F 0 watt/m2 0 mph --- 91 % 30.089 in Hg 0 in
09/02/2026 12:15 AM 62 °F 55 °F 62 °F 60 °F 63.5 °F 0 watt/m2 0 mph --- 92 % 30.084 in Hg 0 in
09/02/2026 12:00 AM 62 °F 55 °F 62 °F 60 °F 63.5 °F 0 watt/m2 0 mph --- 92 % 30.085 in Hg 0 in
09/01/2026 11:45 PM 62 °F 55 °F 62 °F 60 °F 63.4 °F 0 watt/m2 0 mph --- 92 % 30.089 in Hg 0 in
09/01/2026 11:30 PM 62 °F 55 °F 62 °F 60 °F 63.4 °F 0 watt/m2 0 mph --- 92 % 30.091 in Hg 0 in
09/01/2026 11:15 PM 63 °F 55 °F 62 °F 60 °F 63.4 °F 0 watt/m2 0 mph --- 93 % 30.09 in Hg 0 in
09/01/2026 11:00 PM 63 °F 55 °F 62 °F 60 °F 63.4 °F 0 watt/m2 0 mph --- 93 % 30.086 in Hg 0 in
09/01/2026 10:45 PM 63 °F 55 °F 62 °F 61 °F 63.4 °F 0 watt/m2 0 mph --- 93 % 30.078 in Hg 0 in
09/01/2026 10:30 PM 63 °F 56 °F 62 °F 61 °F 63.4 °F 0 watt/m2 0 mph --- 93 % 30.076 in Hg 0 in
09/01/2026 10:15 PM 63 °F 56 °F 63 °F 61 °F 63.4 °F 0 watt/m2 0 mph --- 93 % 30.076 in Hg 0 in
09/01/2026 10:00 PM 63 °F 55 °F 63 °F 61 °F 63.4 °F 0 watt/m2 0 mph --- 93 % 30.067 in Hg 0 in
09/01/2026 09:45 PM 63 °F 55 °F 62 °F 60 °F 63.4 °F 0 watt/m2 0 mph --- 93 % 30.064 in Hg 0 in
09/01/2026 09:30 PM 63 °F 55 °F 62 °F 60 °F 63.4 °F 0 watt/m2 0 mph --- 93 % 30.062 in Hg 0 in
09/01/2026 09:15 PM 63 °F 55 °F 63 °F 61 °F 63.5 °F 0 watt/m2 0 mph --- 92 % 30.053 in Hg 0 in
09/01/2026 09:00 PM 63 °F 55 °F 62 °F 60 °F 63.4 °F 0 watt/m2 0 mph --- 92 % 30.053 in Hg 0 in
09/01/2026 08:45 PM 63 °F 55 °F 62 °F 61 °F 63.5 °F 0 watt/m2 0 mph --- 92 % 30.057 in Hg 0 in
09/01/2026 08:30 PM 63 °F 55 °F 62 °F 60 °F 63.5 °F 0 watt/m2 0 mph --- 92 % 30.058 in Hg 0 in
09/01/2026 08:15 PM 63 °F 55 °F 62 °F 60 °F 63.3 °F 0 watt/m2 0 mph --- 92 % 30.056 in Hg 0 in
09/01/2026 08:00 PM 63 °F 56 °F 62 °F 61 °F 63.4 °F 0 watt/m2 0 mph --- 92 % 30.054 in Hg 0 in
09/01/2026 07:45 PM 63 °F 56 °F 63 °F 61 °F 63.5 °F 0 watt/m2 0 mph --- 91 % 30.051 in Hg 0 in
09/01/2026 07:30 PM 64 °F 56 °F 63 °F 61 °F 63.9 °F 0 watt/m2 0 mph --- 91 % 30.051 in Hg 0 in
09/01/2026 07:15 PM 64 °F 56 °F 64 °F 61 °F 64.2 °F 0 watt/m2 0 mph --- 91 % 30.045 in Hg 0 in
09/01/2026 07:00 PM 64 °F 57 °F 64 °F 62 °F 64.6 °F 8 watt/m2 0 mph --- 91 % 30.045 in Hg 0 in
09/01/2026 06:45 PM 64 °F 57 °F 64 °F 62 °F 64.8 °F 7 watt/m2 0 mph --- 91 % 30.042 in Hg 0 in
09/01/2026 06:30 PM 64 °F 57 °F 64 °F 62 °F 64.8 °F 9 watt/m2 0 mph --- 91 % 30.047 in Hg 0 in
09/01/2026 06:15 PM 64 °F 57 °F 64 °F 62 °F 64.7 °F 17 watt/m2 0 mph --- 91 % 30.041 in Hg 0 in
09/01/2026 06:00 PM 65 °F 57 °F 64 °F 62 °F 64.7 °F 19 watt/m2 0 mph --- 91 % 30.038 in Hg 0 in
09/01/2026 05:45 PM 65 °F 57 °F 65 °F 62 °F 64.6 °F 24 watt/m2 0 mph --- 90 % 30.041 in Hg 0 in
09/01/2026 05:30 PM 65 °F 58 °F 65 °F 63 °F 64.7 °F 26 watt/m2 0 mph --- 90 % 30.039 in Hg 0 in
09/01/2026 05:15 PM 66 °F 58 °F 65 °F 64 °F 65.2 °F 41 watt/m2 0 mph --- 90 % 30.039 in Hg 0 in
09/01/2026 05:00 PM 66 °F 59 °F 66 °F 64 °F 65.7 °F 27 watt/m2 0 mph --- 89 % 30.031 in Hg 0 in
09/01/2026 04:45 PM 66 °F 59 °F 66 °F 64 °F 66.2 °F 19 watt/m2 0 mph --- 87 % 30.022 in Hg 0 in
09/01/2026 04:30 PM 67 °F 60 °F 67 °F 65 °F 66.9 °F 22 watt/m2 0 mph --- 85 % 30.018 in Hg 0 in
09/01/2026 04:15 PM 67 °F 60 °F 67 °F 65 °F 67.5 °F 33 watt/m2 0 mph --- 84 % 30.012 in Hg 0 in
09/01/2026 04:00 PM 68 °F 61 °F 68 °F 66 °F 67.9 °F 60 watt/m2 0 mph --- 83 % 30.011 in Hg 0 in
09/01/2026 03:45 PM 67 °F 60 °F 68 °F 66 °F 68 °F 92 watt/m2 0 mph --- 84 % 30.013 in Hg 0 in
09/01/2026 03:30 PM 67 °F 60 °F 67 °F 65 °F 68.1 °F 83 watt/m2 0 mph --- 84 % 30.009 in Hg 0 in
09/01/2026 03:15 PM 67 °F 59 °F 67 °F 65 °F 68 °F 94 watt/m2 0 mph --- 84 % 30.005 in Hg 0 in
09/01/2026 03:00 PM 66 °F 59 °F 67 °F 65 °F 67.7 °F 94 watt/m2 0 mph --- 87 % 30.005 in Hg 0 in
09/01/2026 02:45 PM 66 °F 59 °F 66 °F 64 °F 67.2 °F 121 watt/m2 0 mph --- 89 % 30.002 in Hg 0 in
09/01/2026 02:30 PM 66 °F 58 °F 66 °F 64 °F 66.3 °F 90 watt/m2 0 mph --- 91 % 30.006 in Hg 0 in
09/01/2026 02:15 PM 66 °F 58 °F 66 °F 64 °F 65.7 °F 110 watt/m2 0 mph --- 92 % 30.013 in Hg 0 in
09/01/2026 02:00 PM 66 °F 58 °F 66 °F 64 °F 65.5 °F 84 watt/m2 0 mph --- 93 % 30.005 in Hg 0 in
09/01/2026 01:45 PM 66 °F 58 °F 66 °F 64 °F 65.6 °F 132 watt/m2 0 mph --- 93 % 30.012 in Hg 0 in
09/01/2026 01:30 PM 65 °F 58 °F 66 °F 63 °F 65.1 °F 143 watt/m2 0 mph --- 92 % 30.014 in Hg 0 in
09/01/2026 01:15 PM 65 °F 58 °F 66 °F 63 °F 64.9 °F 86 watt/m2 0 mph --- 92 % 30.017 in Hg 0 in
09/01/2026 01:00 PM 66 °F 59 °F 66 °F 64 °F 65.3 °F 81 watt/m2 0 mph --- 92 % 30.015 in Hg 0 in
09/01/2026 12:45 PM 67 °F 59 °F 67 °F 65 °F 66.1 °F 87 watt/m2 0 mph --- 92 % 30.008 in Hg 0 in
09/01/2026 12:30 PM 68 °F 61 °F 69 °F 66 °F 67.7 °F 33 watt/m2 0 mph --- 91 % 30.015 in Hg 0 in
09/01/2026 12:15 PM 69 °F 62 °F 70 °F 68 °F 70.4 °F 62 watt/m2 0 mph --- 92 % 30.015 in Hg 0 in
09/01/2026 12:00 PM 70 °F 62 °F 70 °F 68 °F 70.3 °F 74 watt/m2 0 mph --- 92 % 30.013 in Hg 0 in
09/01/2026 11:45 AM 70 °F 62 °F 70 °F 68 °F 70.3 °F 83 watt/m2 0 mph --- 92 % 30.02 in Hg 0 in
09/01/2026 11:30 AM 69 °F 62 °F 70 °F 67 °F 70.3 °F 70 watt/m2 0 mph --- 92 % 30.018 in Hg 0 in
09/01/2026 11:15 AM 69 °F 62 °F 70 °F 67 °F 70.1 °F 79 watt/m2 0 mph --- 92 % 30.019 in Hg 0 in
09/01/2026 11:00 AM 69 °F 62 °F 70 °F 67 °F 70.2 °F 30 watt/m2 0 mph --- 92 % 30.029 in Hg 0 in
09/01/2026 10:45 AM 69 °F 62 °F 70 °F 67 °F 70.1 °F 59 watt/m2 0 mph --- 92 % 30.029 in Hg 0 in
09/01/2026 10:30 AM 70 °F 62 °F 69 °F 67 °F 70.3 °F 26 watt/m2 0 mph --- 92 % 30.023 in Hg 0 in
09/01/2026 10:15 AM 70 °F 62 °F 69 °F 67 °F 70.4 °F 34 watt/m2 0 mph --- 92 % 30.024 in Hg 0 in
09/01/2026 10:00 AM 70 °F 62 °F 70 °F 67 °F 70.7 °F 16 watt/m2 0 mph --- 91 % 30.022 in Hg 0 in
09/01/2026 09:45 AM 70 °F 62 °F 70 °F 68 °F 70.9 °F 18 watt/m2 0 mph --- 90 % 30.023 in Hg 0 in
09/01/2026 09:30 AM 71 °F 63 °F 70 °F 68 °F 71.1 °F 22 watt/m2 0 mph --- 90 % 30.021 in Hg 0 in
09/01/2026 09:15 AM 71 °F 63 °F 70 °F 68 °F 70.9 °F 20 watt/m2 0 mph --- 90 % 30.028 in Hg 0 in
09/01/2026 09:00 AM 72 °F 63 °F 71 °F 69 °F 71 °F 29 watt/m2 0 mph --- 90 % 30.021 in Hg 0 in
09/01/2026 08:45 AM 72 °F 64 °F 72 °F 69 °F 71.5 °F 21 watt/m2 0 mph --- 90 % 30.018 in Hg 0 in
09/01/2026 08:30 AM 73 °F 64 °F 72 °F 70 °F 71.7 °F 40 watt/m2 0 mph --- 89 % 30.018 in Hg 0 in
09/01/2026 08:15 AM 72 °F 64 °F 72 °F 69 °F 72.1 °F 30 watt/m2 0 mph --- 89 % 30.019 in Hg 0 in
09/01/2026 08:00 AM 72 °F 64 °F 71 °F 69 °F 72 °F 18 watt/m2 0 mph --- 87 % 30.027 in Hg 0 in
09/01/2026 07:45 AM 72 °F 64 °F 71 °F 69 °F 71.8 °F 14 watt/m2 0 mph --- 85 % 30.026 in Hg 0 in
09/01/2026 07:30 AM 72 °F 64 °F 71 °F 69 °F 71.8 °F 32 watt/m2 0 mph --- 86 % 30.027 in Hg 0 in
09/01/2026 07:15 AM 72 °F 64 °F 71 °F 69 °F 71.6 °F 24 watt/m2 0 mph --- 88 % 30.024 in Hg 0 in
09/01/2026 07:00 AM 72 °F 63 °F 71 °F 69 °F 71.7 °F 8 watt/m2 0 mph --- 88 % 30.028 in Hg 0 in
09/01/2026 06:45 AM 72 °F 63 °F 71 °F 69 °F 71.8 °F 1 watt/m2 0 mph --- 89 % 30.023 in Hg 0 in
09/01/2026 06:30 AM 71 °F 63 °F 71 °F 69 °F 71.7 °F 0 watt/m2 0 mph --- 90 % 30.021 in Hg 0 in
09/01/2026 06:15 AM 71 °F 63 °F 71 °F 69 °F 71.9 °F 0 watt/m2 0 mph --- 91 % 30.021 in Hg 0 in
09/01/2026 06:00 AM 71 °F 63 °F 71 °F 69 °F 71.9 °F 0 watt/m2 0 mph --- 90 % 30.012 in Hg 0 in
09/01/2026 05:45 AM 71 °F 63 °F 71 °F 69 °F 72 °F 0 watt/m2 0 mph --- 90 % 30.014 in Hg 0 in
09/01/2026 05:30 AM 71 °F 63 °F 71 °F 69 °F 72 °F 0 watt/m2 0 mph --- 90 % 30.016 in Hg 0 in
09/01/2026 05:15 AM 71 °F 63 °F 71 °F 69 °F 71.8 °F 0 watt/m2 0 mph --- 89 % 30.018 in Hg 0 in
09/01/2026 05:00 AM 71 °F 63 °F 71 °F 68 °F 71.7 °F 0 watt/m2 0 mph --- 89 % 30.025 in Hg 0 in
09/01/2026 04:45 AM 71 °F 63 °F 71 °F 68 °F 71.5 °F 0 watt/m2 0 mph --- 89 % 30.026 in Hg 0 in
09/01/2026 04:30 AM 72 °F 63 °F 71 °F 68 °F 71.5 °F 0 watt/m2 0 mph --- 88 % 30.032 in Hg 0 in
09/01/2026 04:15 AM 72 °F 63 °F 71 °F 69 °F 71.8 °F 0 watt/m2 0 mph --- 88 % 30.035 in Hg 0 in
09/01/2026 04:00 AM 72 °F 64 °F 71 °F 68 °F 71.7 °F 0 watt/m2 0 mph --- 88 % 30.038 in Hg 0 in
09/01/2026 03:45 AM 72 °F 64 °F 71 °F 68 °F 71.7 °F 0 watt/m2 0 mph --- 88 % 30.035 in Hg 0 in
09/01/2026 03:30 AM 72 °F 64 °F 71 °F 68 °F 71.7 °F 0 watt/m2 0 mph --- 87 % 30.039 in Hg 0 in
09/01/2026 03:15 AM 72 °F 63 °F 71 °F 68 °F 71.7 °F 0 watt/m2 0 mph --- 87 % 30.044 in Hg 0 in
09/01/2026 03:00 AM 71 °F 63 °F 71 °F 68 °F 71.7 °F 0 watt/m2 0 mph --- 87 % 30.043 in Hg 0 in
09/01/2026 02:45 AM 71 °F 63 °F 71 °F 68 °F 71.7 °F 0 watt/m2 0 mph --- 86 % 30.047 in Hg 0 in
09/01/2026 02:30 AM 71 °F 63 °F 71 °F 68 °F 71.7 °F 0 watt/m2 0 mph --- 86 % 30.045 in Hg 0 in
09/01/2026 02:15 AM 72 °F 64 °F 71 °F 69 °F 71.8 °F 0 watt/m2 0 mph --- 86 % 30.055 in Hg 0 in
09/01/2026 02:00 AM 72 °F 63 °F 71 °F 69 °F 71.8 °F 0 watt/m2 0 mph --- 85 % 30.059 in Hg 0 in
09/01/2026 01:45 AM 72 °F 63 °F 71 °F 69 °F 71.7 °F 0 watt/m2 0 mph --- 84 % 30.057 in Hg 0 in

Alarms Station information Line AB Subdivision NEWHAVEN